Tracking 25372 objects as of 24-Jan-2022
HD Live streaming from Space Station
objects crossing your sky now

SOICAL (CONE)

Track SOICAL (CONE) now!
10-day predictions
SOICAL (CONE) is classified as:


NORAD ID: 4132
Int'l Code: 1969-082K
Perigee: 807.6 km
Apogee: 822.7 km
Inclination: 70.0 °
Period: 101.0 minutes
Semi major axis: 7186 km
RCS: 0.2856 m2 (medium)
Launch date: September 30, 1969
Source: United States (US)
Launch site: AIR FORCE WESTERN TEST RANGE (AFWTR)
aabbcc
Your satellite tracking list
Your tracking list is empty




NASA's NSSDC Master Catalog

Two Line Element Set (TLE):
1 04132U 69082K   22024.19797662  .00000409  00000-0  19820-3 0  9998
2 04132  69.9959 290.9908 0010518 200.0453 160.0256 14.25146304691742
Source of the keplerian elements: AFSPC